Home > Weather > Hollabrunn > Past weeks

Flag for Austria Past Weather in Hollabrunn, Lower Austria, Austria — Yesterday and Last 2 Weeks

Now
73 °F

Mild.


Feels Like: 76 °F
Forecast: 55 / 79 °F
Wind: 3 mph from East

Location: Retz

Current Time: May 27, 2016 at 6:22:47 PM

Latest Report: May 27, 2016 at 5:00 PM


Visibility: N/A

Pressure: 29.94 "Hg

Humidity: 61%

Dew Point: 59 °F

Location of HollabrunnLocation

Past Weather in Hollabrunn — Graph

°F

Hollabrunn Temperature Yesterday

Maximum temperature yesterday: 74 °F (at 6:00 PM)
Minimum temperature yesterday: 53 °F (at 4:00 AM)
Average temperature yesterday: 63 °F

High & Low Weather Summary for the Past Weeks

 TemperatureHumidityPressure
High77 °F (May 22, 2:00 PM)97% (May 12, 8:00 PM)30.13 "Hg (May 12, 8:00 PM)
Low42 °F (May 16, 3:00 AM)31% (May 18, 3:00 PM)29.32 "Hg (May 13, 5:00 AM)
Average58 °F67%29.87 "Hg
* Reported May 12 5:00 PM — May 27 5:00 PM, Hollabrunn, Weather by CustomWeather, © 2016

Note: Actual official high and low records may vary slightly from our data, if they occured in-between our weather recording intervals... More about our weather records

Advertising

Hollabrunn Weather History for the Previous 24 Hours

Scroll right to see more
 ConditionsComfort  
Time TempWeatherWind HumidityBarometerVisibility
5:00 PM
Fri, May 27
73 °FMild.3 mph61%29.94 "HgN/A
4:00 PM74 °FMild.3 mph56%29.94 "HgN/A
3:00 PM74 °FMild.5 mph55%29.95 "HgN/A
2:00 PM74 °FPartly sunny.3 mph58%29.96 "Hg11 mi
1:00 PM72 °FMild.3 mph57%29.98 "HgN/A
11:00 AM69 °FMild.3 mph69%30.00 "HgN/A
10:00 AM65 °FMild.3 mph71%30.01 "HgN/A
9:00 AM64 °FMild.6 mph74%30.02 "HgN/A
8:00 AM61 °FPassing clouds.6 mph81%30.02 "Hg3 mi
7:00 AM57 °FPassing clouds.5 mph85%30.02 "Hg3 mi
6:00 AM56 °FCool.5 mph88%30.02 "HgN/A
5:00 AM56 °FCool.3 mph89%30.02 "HgN/A
4:00 AM57 °FCool.5 mph87%30.02 "HgN/A
3:00 AM58 °FCool.3 mph85%30.01 "HgN/A
2:00 AM59 °FCool.2 mph82%30.01 "HgN/A
1:00 AM61 °FCool.2 mph80%30.02 "HgN/A
12:00 AM61 °FCool.3 mph79%30.02 "HgN/A
11:00 PM
Thu, May 26
62 °FCool.5 mph73%30.01 "HgN/A
10:00 PM65 °FMild.2 mph57%29.99 "HgN/A
9:00 PM66 °FMild.3 mph58%29.98 "HgN/A
8:00 PM69 °FPassing clouds.2 mph47%29.97 "Hg14 mi
7:00 PM73 °FMild.2 mph38%29.96 "HgN/A
6:00 PM74 °FMild.1 mph38%29.96 "HgN/A
Weather by CustomWeather, © 2016

See weather overviewHow to use our weather pages